owner,sensor,date,latitude,longitude,vertical_datum,direction_of_sea_water_velocity,sea_water_speed,upward_sea_water_velocity,qcFlag 
TABS,ioos:station:wmo:42046:1,1999-09-01T00:00:00Z,27.8903,-94.0367,2.0,81.95095712,9.998499887,-99999.0,'11133222,11111222,99999999' 
TABS,ioos:station:wmo:42046:1,1999-09-01T00:30:00Z,27.8903,-94.0367,2.0,40.84047266,7.798717843,-99999.0,'11133222,11111222,99999999' 
TABS,ioos:station:wmo:42046:1,1999-09-01T02:00:00Z,27.8903,-94.0367,2.0,65.83342667,8.549268975,-99999.0,'11133222,11111222,99999999' 
TABS,ioos:station:wmo:42046:1,1999-09-01T02:30:00Z,27.8903,-94.0367,2.0,86.03969743,13.03111661,-99999.0,'11111222,11111222,99999999' 
TABS,ioos:station:wmo:42046:1,1999-09-01T03:00:00Z,27.8903,-94.0367,2.0,72.58206994,16.03527362,-99999.0,'11111222,11111222,99999999' 
TABS,ioos:station:wmo:42046:1,1999-09-01T03:30:00Z,27.8903,-94.0367,2.0,79.21572735,17.10204666,-99999.0,'11111222,11111222,99999999' 
TABS,ioos:station:wmo:42046:1,1999-09-01T04:00:00Z,27.8903,-94.0367,2.0,79.00751812,14.15980226,-99999.0,'11111222,11111222,99999999' 
TABS,ioos:station:wmo:42046:1,1999-09-01T04:30:00Z,27.8903,-94.0367,2.0,54.58963451,15.70509471,-99999.0,'11111222,11111222,99999999' 
TABS,ioos:station:wmo:42046:1,1999-09-01T05:00:00Z,27.8903,-94.0367,2.0,71.05353962,21.2513529,-99999.0,'11111222,11111222,99999999' 
TABS,ioos:station:wmo:42046:1,1999-09-01T05:30:00Z,27.8903,-94.0367,2.0,74.40722552,17.85721143,-99999.0,'11111222,11111222,99999999' 
TABS,ioos:station:wmo:42046:1,1999-09-01T06:00:00Z,27.8903,-94.0367,2.0,73.43120957,12.62418314,-99999.0,'11111222,11111222,99999999' 
TABS,ioos:station:wmo:42046:1,1999-09-01T06:30:00Z,27.8903,-94.0367,2.0,85.28525651,9.732933782,-99999.0,'11133222,11111222,99999999' 
TABS,ioos:station:wmo:42046:1,1999-09-01T07:00:00Z,27.8903,-94.0367,2.0,93.6138723,9.518928511,-99999.0,'11133222,11111222,99999999' 
TABS,ioos:station:wmo:42046:1,1999-09-01T07:30:00Z,27.8903,-94.0367,2.0,93.57632601,9.618731725,-99999.0,'11133222,11111222,99999999' 
TABS,ioos:station:wmo:42046:1,1999-09-01T08:00:00Z,27.8903,-94.0367,2.0,110.1857558,14.48999655,-99999.0,'11111222,11111222,99999999' 
TABS,ioos:station:wmo:42046:1,1999-09-01T08:30:00Z,27.8903,-94.0367,2.0,108.1380397,6.103277808,-99999.0,'11133222,11111222,99999999' 
TABS,ioos:station:wmo:42046:1,1999-09-01T09:00:00Z,27.8903,-94.0367,2.0,101.9968713,8.178630692,-99999.0,'11133222,11111222,99999999' 
TABS,ioos:station:wmo:42046:1,1999-09-01T09:30:00Z,27.8903,-94.0367,2.0,97.63331274,9.786725704,-99999.0,'11133222,11111222,99999999' 
TABS,ioos:station:wmo:42046:1,1999-09-01T10:00:00Z,27.8903,-94.0367,2.0,116.7250323,16.01030918,-99999.0,'11111222,11111222,99999999' 
TABS,ioos:station:wmo:42046:1,1999-09-01T10:30:00Z,27.8903,-94.0367,2.0,117.6666926,11.62970335,-99999.0,'11111222,11111222,99999999' 
TABS,ioos:station:wmo:42046:1,1999-09-01T11:00:00Z,27.8903,-94.0367,2.0,140.3891939,7.52861209,-99999.0,'11133222,11111222,99999999' 
TABS,ioos:station:wmo:42046:1,1999-09-01T11:30:00Z,27.8903,-94.0367,2.0,162.1809423,2.941088234,-99999.0,'11133222,11111222,99999999' 
TABS,ioos:station:wmo:42046:1,1999-09-01T12:00:00Z,27.8903,-94.0367,2.0,124.5400101,9.347726996,-99999.0,'11133222,11111222,99999999' 
TABS,ioos:station:wmo:42046:1,1999-09-01T12:30:00Z,27.8903,-94.0367,2.0,131.1858289,8.50411665,-99999.0,'11133222,11111222,99999999' 
TABS,ioos:station:wmo:42046:1,1999-09-01T13:00:00Z,27.8903,-94.0367,2.0,122.0053084,10.37737925,-99999.0,'11111222,11111222,99999999' 
TABS,ioos:station:wmo:42046:1,1999-09-01T13:30:00Z,27.8903,-94.0367,2.0,108.8383895,8.981091248,-99999.0,'11133222,11111222,99999999' 
TABS,ioos:station:wmo:42046:1,1999-09-01T14:00:00Z,27.8903,-94.0367,2.0,136.3530836,8.982761268,-99999.0,'11133222,11111222,99999999' 
TABS,ioos:station:wmo:42046:1,1999-09-01T14:30:00Z,27.8903,-94.0367,2.0,146.3098008,9.374433316,-99999.0,'11133222,11111222,99999999' 
TABS,ioos:station:wmo:42046:1,1999-09-01T15:00:00Z,27.8903,-94.0367,2.0,128.1181872,8.261961026,-99999.0,'11133222,11111222,99999999' 
TABS,ioos:station:wmo:42046:1,1999-09-01T15:30:00Z,27.8903,-94.0367,2.0,118.3456273,8.63539229,-99999.0,'11133222,11111222,99999999' 
TABS,ioos:station:wmo:42046:1,1999-09-01T16:00:00Z,27.8903,-94.0367,2.0,141.7660538,8.402380615,-99999.0,'11133222,11111222,99999999' 
TABS,ioos:station:wmo:42046:1,1999-09-01T16:30:00Z,27.8903,-94.0367,2.0,77.90527121,4.295346319,-99999.0,'11133222,11111222,99999999' 
TABS,ioos:station:wmo:42046:1,1999-09-01T17:00:00Z,27.8903,-94.0367,2.0,106.5043228,14.08012784,-99999.0,'11111222,11111222,99999999' 
TABS,ioos:station:wmo:42046:1,1999-09-01T17:30:00Z,27.8903,-94.0367,2.0,126.8698114,10.5,-99999.0,'11111222,11111222,99999999' 
TABS,ioos:station:wmo:42046:1,1999-09-01T18:00:00Z,27.8903,-94.0367,2.0,110.0630258,12.24295716,-99999.0,'11111222,11111222,99999999' 
TABS,ioos:station:wmo:42046:1,1999-09-01T18:30:00Z,27.8903,-94.0367,2.0,73.73983332,2.5,-99999.0,'11133222,11111222,99999999' 
TABS,ioos:station:wmo:42046:1,1999-09-01T19:00:00Z,27.8903,-94.0367,2.0,174.8053728,2.209072203,-99999.0,'11133222,11111222,99999999' 
TABS,ioos:station:wmo:42046:1,1999-09-01T19:30:00Z,27.8903,-94.0367,2.0,134.2359981,10.60754448,-99999.0,'11111222,11111222,99999999' 
TABS,ioos:station:wmo:42046:1,1999-09-01T20:00:00Z,27.8903,-94.0367,2.0,128.7740803,7.824321057,-99999.0,'11133222,11111222,99999999' 
TABS,ioos:station:wmo:42046:1,1999-09-01T20:30:00Z,27.8903,-94.0367,2.0,112.190237,8.207923002,-99999.0,'11133222,11111222,99999999' 
TABS,ioos:station:wmo:42046:1,1999-09-01T21:00:00Z,27.8903,-94.0367,2.0,170.5374895,0.608276253,-99999.0,'11133222,11111222,99999999' 
TABS,ioos:station:wmo:42046:1,1999-09-01T21:30:00Z,27.8903,-94.0367,2.0,125.7538036,6.16116872,-99999.0,'11133222,11111222,99999999' 
TABS,ioos:station:wmo:42046:1,1999-09-01T22:00:00Z,27.8903,-94.0367,2.0,105.5240747,3.736308338,-99999.0,'11133222,11111222,99999999' 
TABS,ioos:station:wmo:42046:1,1999-09-01T22:30:00Z,27.8903,-94.0367,2.0,100.7657304,14.45441109,-99999.0,'11111222,11111222,99999999' 
TABS,ioos:station:wmo:42046:1,1999-09-01T23:00:00Z,27.8903,-94.0367,2.0,111.4129194,10.95627674,-99999.0,'11111222,11111222,99999999' 
TABS,ioos:station:wmo:42046:1,1999-09-01T23:30:00Z,27.8903,-94.0367,2.0,99.92622229,8.121576202,-99999.0,'11133222,11111222,99999999' 
TABS,ioos:station:wmo:42046:1,1999-09-02T00:00:00Z,27.8903,-94.0367,2.0,119.3576849,5.507267925,-99999.0,'11133222,11111222,99999999' 
TABS,ioos:station:wmo:42046:1,1999-09-02T00:30:00Z,27.8903,-94.0367,2.0,91.57654637,10.90412766,-99999.0,'11111222,11111222,99999999' 
TABS,ioos:station:wmo:42046:1,1999-09-02T01:00:00Z,27.8903,-94.0367,2.0,57.52888364,5.215361924,-99999.0,'11133222,11111222,99999999' 
TABS,ioos:station:wmo:42046:1,1999-09-02T01:30:00Z,27.8903,-94.0367,2.0,99.58292231,15.6179384,-99999.0,'11111222,11111222,99999999' 
TABS,ioos:station:wmo:42046:1,1999-09-02T02:00:00Z,27.8903,-94.0367,2.0,102.7575023,10.86830254,-99999.0,'11111222,11111222,99999999' 
TABS,ioos:station:wmo:42046:1,1999-09-02T02:30:00Z,27.8903,-94.0367,2.0,101.0409144,12.53195914,-99999.0,'11111222,11111222,99999999' 
TABS,ioos:station:wmo:42046:1,1999-09-02T03:00:00Z,27.8903,-94.0367,2.0,121.9306074,8.13019065,-99999.0,'11133222,11111222,99999999' 
TABS,ioos:station:wmo:42046:1,1999-09-02T03:30:00Z,27.8903,-94.0367,2.0,104.7196253,12.20040983,-99999.0,'11111222,11111222,99999999' 
TABS,ioos:station:wmo:42046:1,1999-09-02T04:00:00Z,27.8903,-94.0367,2.0,59.99514929,8.198780397,-99999.0,'11133222,11111222,99999999' 
TABS,ioos:station:wmo:42046:1,1999-09-02T04:30:00Z,27.8903,-94.0367,2.0,138.0126752,2.690724809,-99999.0,'11133222,11111222,99999999' 
TABS,ioos:station:wmo:42046:1,1999-09-02T05:00:00Z,27.8903,-94.0367,2.0,91.94148185,11.80677771,-99999.0,'11111222,11111222,99999999' 
TABS,ioos:station:wmo:42046:1,1999-09-02T05:30:00Z,27.8903,-94.0367,2.0,68.44811298,12.79453008,-99999.0,'11111222,11111222,99999999' 
TABS,ioos:station:wmo:42046:1,1999-09-02T06:00:00Z,27.8903,-94.0367,2.0,85.47755643,17.7552809,-99999.0,'11111222,11111222,99999999' 
TABS,ioos:station:wmo:42046:1,1999-09-02T06:30:00Z,27.8903,-94.0367,2.0,96.53661836,9.662815325,-99999.0,'11133222,11111222,99999999' 
TABS,ioos:station:wmo:42046:1,1999-09-02T07:00:00Z,27.8903,-94.0367,2.0,55.44570286,12.87050893,-99999.0,'11111222,11111222,99999999' 
TABS,ioos:station:wmo:42046:1,1999-09-02T07:30:00Z,27.8903,-94.0367,2.0,79.19840702,15.47417203,-99999.0,'11111222,11111222,99999999' 
TABS,ioos:station:wmo:42046:1,1999-09-02T08:00:00Z,27.8903,-94.0367,2.0,89.01224191,11.60172401,-99999.0,'11111222,11111222,99999999' 
TABS,ioos:station:wmo:42046:1,1999-09-02T08:30:00Z,27.8903,-94.0367,2.0,85.17924519,16.65893154,-99999.0,'11111222,11111222,99999999' 
TABS,ioos:station:wmo:42046:1,1999-09-02T09:00:00Z,27.8903,-94.0367,2.0,79.52578967,12.10165278,-99999.0,'11111222,11111222,99999999' 
TABS,ioos:station:wmo:42046:1,1999-09-02T09:30:00Z,27.8903,-94.0367,2.0,80.6807004,19.76081982,-99999.0,'11111222,11111222,99999999' 
TABS,ioos:station:wmo:42046:1,1999-09-02T10:00:00Z,27.8903,-94.0367,2.0,98.13008334,15.55634919,-99999.0,'11111222,11111222,99999999' 
TABS,ioos:station:wmo:42046:1,1999-09-02T10:30:00Z,27.8903,-94.0367,2.0,106.1721212,10.41201229,-99999.0,'11111222,11111222,99999999' 
TABS,ioos:station:wmo:42046:1,1999-09-02T11:00:00Z,27.8903,-94.0367,2.0,101.1546337,7.236711961,-99999.0,'11133222,11111222,99999999' 
TABS,ioos:station:wmo:42046:1,1999-09-02T11:30:00Z,27.8903,-94.0367,2.0,115.0835353,5.189412298,-99999.0,'11133222,11111222,99999999' 
TABS,ioos:station:wmo:42046:1,1999-09-02T12:00:00Z,27.8903,-94.0367,2.0,90.44072704,13.00038461,-99999.0,'11111222,11111222,99999999' 
TABS,ioos:station:wmo:42046:1,1999-09-02T12:30:00Z,27.8903,-94.0367,2.0,74.21928359,9.560334722,-99999.0,'11133222,11111222,99999999' 
TABS,ioos:station:wmo:42046:1,1999-09-02T13:00:00Z,27.8903,-94.0367,2.0,32.2757793,2.247220505,-99999.0,'11133222,11111222,99999999' 
TABS,ioos:station:wmo:42046:1,1999-09-02T13:30:00Z,27.8903,-94.0367,2.0,83.40009845,12.18072247,-99999.0,'11111222,11111222,99999999' 
TABS,ioos:station:wmo:42046:1,1999-09-02T14:00:00Z,27.8903,-94.0367,2.0,81.69434322,13.84521578,-99999.0,'11111222,11111222,99999999' 
TABS,ioos:station:wmo:42046:1,1999-09-02T14:30:00Z,27.8903,-94.0367,2.0,87.00687499,15.32090076,-99999.0,'11111222,11111222,99999999' 
TABS,ioos:station:wmo:42046:1,1999-09-02T15:00:00Z,27.8903,-94.0367,2.0,80.852941,11.95198728,-99999.0,'11111222,11111222,99999999' 
TABS,ioos:station:wmo:42046:1,1999-09-02T15:30:00Z,27.8903,-94.0367,2.0,84.94618577,14.75737104,-99999.0,'11111222,11111222,99999999' 
TABS,ioos:station:wmo:42046:1,1999-09-02T16:00:00Z,27.8903,-94.0367,2.0,83.03905325,17.32772345,-99999.0,'11111222,11111222,99999999' 
TABS,ioos:station:wmo:42046:1,1999-09-02T16:30:00Z,27.8903,-94.0367,2.0,80.01506314,14.41839103,-99999.0,'11111222,11111222,99999999' 
TABS,ioos:station:wmo:42046:1,1999-09-02T17:00:00Z,27.8903,-94.0367,2.0,88.24659924,9.804590761,-99999.0,'11133222,11111222,99999999' 
TABS,ioos:station:wmo:42046:1,1999-09-02T17:30:00Z,27.8903,-94.0367,2.0,90.0,18.4,-99999.0,'11111222,11111222,99999999' 
TABS,ioos:station:wmo:42046:1,1999-09-02T18:00:00Z,27.8903,-94.0367,2.0,109.3740945,9.646242792,-99999.0,'11133222,11111222,99999999' 
TABS,ioos:station:wmo:42046:1,1999-09-02T18:30:00Z,27.8903,-94.0367,2.0,79.38036956,4.883646179,-99999.0,'11133222,11111222,99999999' 
TABS,ioos:station:wmo:42046:1,1999-09-02T19:00:00Z,27.8903,-94.0367,2.0,90.80692757,7.10070419,-99999.0,'11133222,11111222,99999999' 
TABS,ioos:station:wmo:42046:1,1999-09-02T19:30:00Z,27.8903,-94.0367,2.0,106.5043228,11.26410227,-99999.0,'11111222,11111222,99999999' 
TABS,ioos:station:wmo:42046:1,1999-09-02T20:00:00Z,27.8903,-94.0367,2.0,118.6730794,7.29451849,-99999.0,'11133222,11111222,99999999' 
TABS,ioos:station:wmo:42046:1,1999-09-02T20:30:00Z,27.8903,-94.0367,2.0,122.0573008,11.68118145,-99999.0,'11111222,11111222,99999999' 
TABS,ioos:station:wmo:42046:1,1999-09-02T21:00:00Z,27.8903,-94.0367,2.0,139.707736,12.06150903,-99999.0,'11111222,11111222,99999999' 
TABS,ioos:station:wmo:42046:1,1999-09-02T21:30:00Z,27.8903,-94.0367,2.0,137.6424339,4.601086828,-99999.0,'11133222,11111222,99999999' 
TABS,ioos:station:wmo:42046:1,1999-09-02T22:00:00Z,27.8903,-94.0367,2.0,119.4536039,9.761659695,-99999.0,'11133222,11111222,99999999' 
TABS,ioos:station:wmo:42046:1,1999-09-02T22:30:00Z,27.8903,-94.0367,2.0,123.857031,9.513148795,-99999.0,'11133222,11111222,99999999' 
TABS,ioos:station:wmo:42046:1,1999-09-02T23:00:00Z,27.8903,-94.0367,2.0,138.199427,11.40219277,-99999.0,'11111222,11111222,99999999' 
TABS,ioos:station:wmo:42046:1,1999-09-02T23:30:00Z,27.8903,-94.0367,2.0,127.6475326,8.840814442,-99999.0,'11133222,11111222,99999999' 
TABS,ioos:station:wmo:42046:1,1999-09-03T00:00:00Z,27.8903,-94.0367,2.0,131.0697284,9.284934033,-99999.0,'11133222,11111222,99999999' 
TABS,ioos:station:wmo:42046:1,1999-09-03T00:30:00Z,27.8903,-94.0367,2.0,158.7493337,5.793962375,-99999.0,'11133222,11111222,99999999' 
TABS,ioos:station:wmo:42046:1,1999-09-03T01:00:00Z,27.8903,-94.0367,2.0,128.2900737,7.262231062,-99999.0,'11133222,11111222,99999999' 
TABS,ioos:station:wmo:42046:1,1999-09-03T01:30:00Z,27.8903,-94.0367,2.0,146.0034099,5.186520992,-99999.0,'11133222,11111222,99999999' 
TABS,ioos:station:wmo:42046:1,1999-09-03T02:00:00Z,27.8903,-94.0367,2.0,120.3026099,8.918520057,-99999.0,'11133222,11111222,99999999' 
TABS,ioos:station:wmo:42046:1,1999-09-03T02:30:00Z,27.8903,-94.0367,2.0,121.6606771,7.049113419,-99999.0,'11133222,11111222,99999999' 
TABS,ioos:station:wmo:42046:1,1999-09-03T03:00:00Z,27.8903,-94.0367,2.0,121.4294921,12.65701387,-99999.0,'11111222,11111222,99999999' 
TABS,ioos:station:wmo:42046:1,1999-09-03T03:30:00Z,27.8903,-94.0367,2.0,85.07290157,5.821511831,-99999.0,'11133222,11111222,99999999' 
TABS,ioos:station:wmo:42046:1,1999-09-03T04:00:00Z,27.8903,-94.0367,2.0,88.15239405,6.203224968,-99999.0,'11133222,11111222,99999999' 
TABS,ioos:station:wmo:42046:1,1999-09-03T04:30:00Z,27.8903,-94.0367,2.0,82.40537439,9.07964757,-99999.0,'11133222,11111222,99999999' 
TABS,ioos:station:wmo:42046:1,1999-09-03T05:00:00Z,27.8903,-94.0367,2.0,50.42531891,12.71416533,-99999.0,'11111222,11111222,99999999' 
TABS,ioos:station:wmo:42046:1,1999-09-03T05:30:00Z,27.8903,-94.0367,2.0,52.02848503,5.20096145,-99999.0,'11133222,11111222,99999999' 
TABS,ioos:station:wmo:42046:1,1999-09-03T06:00:00Z,27.8903,-94.0367,2.0,93.96030257,13.03111661,-99999.0,'11111222,11111222,99999999' 
TABS,ioos:station:wmo:42046:1,1999-09-03T06:30:00Z,27.8903,-94.0367,2.0,87.35746089,13.01383879,-99999.0,'11111222,11111222,99999999' 
TABS,ioos:station:wmo:42046:1,1999-09-03T07:00:00Z,27.8903,-94.0367,2.0,90.0,13.6,-99999.0,'11111222,11111222,99999999' 
TABS,ioos:station:wmo:42046:1,1999-09-03T07:30:00Z,27.8903,-94.0367,2.0,71.10179728,11.73243368,-99999.0,'11111222,11111222,99999999' 
TABS,ioos:station:wmo:42046:1,1999-09-03T08:00:00Z,27.8903,-94.0367,2.0,62.57132292,8.90056178,-99999.0,'11133222,11111222,99999999' 
TABS,ioos:station:wmo:42046:1,1999-09-03T08:30:00Z,27.8903,-94.0367,2.0,35.65545518,5.661271942,-99999.0,'11133222,11111222,99999999' 
TABS,ioos:station:wmo:42046:1,1999-09-03T09:00:00Z,27.8903,-94.0367,2.0,86.10833281,14.73397435,-99999.0,'11111222,11111222,99999999' 
TABS,ioos:station:wmo:42046:1,1999-09-03T09:30:00Z,27.8903,-94.0367,2.0,78.69009397,10.70794098,-99999.0,'11111222,11111222,99999999' 
TABS,ioos:station:wmo:42046:1,1999-09-03T10:00:00Z,27.8903,-94.0367,2.0,90.36034522,15.90031446,-99999.0,'11111222,11111222,99999999' 
TABS,ioos:station:wmo:42046:1,1999-09-03T10:30:00Z,27.8903,-94.0367,2.0,58.15491394,18.9528362,-99999.0,'11111222,11111222,99999999' 
TABS,ioos:station:wmo:42046:1,1999-09-03T11:00:00Z,27.8903,-94.0367,2.0,52.79216509,6.780117993,-99999.0,'11133222,11111222,99999999' 
TABS,ioos:station:wmo:42046:1,1999-09-03T11:30:00Z,27.8903,-94.0367,2.0,73.52315714,7.404052944,-99999.0,'11133222,11111222,99999999' 
TABS,ioos:station:wmo:42046:1,1999-09-03T12:00:00Z,27.8903,-94.0367,2.0,83.27313168,19.63517252,-99999.0,'11111222,11111222,99999999' 
TABS,ioos:station:wmo:42046:1,1999-09-03T12:30:00Z,27.8903,-94.0367,2.0,87.76302617,25.61952381,-99999.0,'11111222,11111222,99999999' 
TABS,ioos:station:wmo:42046:1,1999-09-03T13:00:00Z,27.8903,-94.0367,2.0,80.08727173,20.9121974,-99999.0,'11111222,11111222,99999999' 
TABS,ioos:station:wmo:42046:1,1999-09-03T13:30:00Z,27.8903,-94.0367,2.0,88.51213595,23.10779089,-99999.0,'11111222,11111222,99999999' 
TABS,ioos:station:wmo:42046:1,1999-09-03T14:00:00Z,27.8903,-94.0367,2.0,70.32980011,23.46955475,-99999.0,'11111222,11111222,99999999' 
TABS,ioos:station:wmo:42046:1,1999-09-03T14:30:00Z,27.8903,-94.0367,2.0,100.8229859,20.76944872,-99999.0,'11111222,11111222,99999999' 
TABS,ioos:station:wmo:42046:1,1999-09-03T15:00:00Z,27.8903,-94.0367,2.0,86.35373732,20.4413796,-99999.0,'11111222,11111222,99999999' 
TABS,ioos:station:wmo:42046:1,1999-09-03T15:30:00Z,27.8903,-94.0367,2.0,95.68369304,21.20424486,-99999.0,'11111222,11111222,99999999' 
TABS,ioos:station:wmo:42046:1,1999-09-03T16:00:00Z,27.8903,-94.0367,2.0,107.7785195,19.32278448,-99999.0,'11111222,11111222,99999999' 
TABS,ioos:station:wmo:42046:1,1999-09-03T16:30:00Z,27.8903,-94.0367,2.0,107.8918353,13.3454112,-99999.0,'11111222,11111222,99999999' 
TABS,ioos:station:wmo:42046:1,1999-09-03T17:00:00Z,27.8903,-94.0367,2.0,118.6570504,19.60102038,-99999.0,'11111222,11111222,99999999' 
TABS,ioos:station:wmo:42046:1,1999-09-03T17:30:00Z,27.8903,-94.0367,2.0,112.9793497,17.16187635,-99999.0,'11111222,11111222,99999999' 
TABS,ioos:station:wmo:42046:1,1999-09-03T18:00:00Z,27.8903,-94.0367,2.0,103.3799318,21.17474911,-99999.0,'11111222,11111222,99999999' 
TABS,ioos:station:wmo:42046:1,1999-09-03T18:30:00Z,27.8903,-94.0367,2.0,116.1615053,19.05177157,-99999.0,'11111222,11111222,99999999' 
TABS,ioos:station:wmo:42046:1,1999-09-03T19:00:00Z,27.8903,-94.0367,2.0,128.0685542,18.16397534,-99999.0,'11111222,11111222,99999999' 
TABS,ioos:station:wmo:42046:1,1999-09-03T19:30:00Z,27.8903,-94.0367,2.0,125.1032459,16.86801707,-99999.0,'11111222,11111222,99999999' 
TABS,ioos:station:wmo:42046:1,1999-09-03T20:00:00Z,27.8903,-94.0367,2.0,129.1664008,22.95844071,-99999.0,'11111222,11111222,99999999' 
TABS,ioos:station:wmo:42046:1,1999-09-03T20:30:00Z,27.8903,-94.0367,2.0,137.8154449,21.59282288,-99999.0,'11111222,11111222,99999999' 
TABS,ioos:station:wmo:42046:1,1999-09-03T21:00:00Z,27.8903,-94.0367,2.0,145.6810672,20.22003956,-99999.0,'11111222,11111222,99999999' 
TABS,ioos:station:wmo:42046:1,1999-09-03T21:30:00Z,27.8903,-94.0367,2.0,129.6105956,18.82153022,-99999.0,'11111222,11111222,99999999' 
TABS,ioos:station:wmo:42046:1,1999-09-03T22:00:00Z,27.8903,-94.0367,2.0,133.0997882,14.92816131,-99999.0,'11111222,11111222,99999999' 
TABS,ioos:station:wmo:42046:1,1999-09-03T22:30:00Z,27.8903,-94.0367,2.0,141.019732,19.5532606,-99999.0,'11111222,11111222,99999999' 
TABS,ioos:station:wmo:42046:1,1999-09-03T23:00:00Z,27.8903,-94.0367,2.0,144.0577617,14.82194319,-99999.0,'11111222,11111222,99999999' 
TABS,ioos:station:wmo:42046:1,1999-09-03T23:30:00Z,27.8903,-94.0367,2.0,147.2155853,14.03566885,-99999.0,'11111222,11111222,99999999' 
TABS,ioos:station:wmo:42046:1,1999-09-04T00:00:00Z,27.8903,-94.0367,2.0,148.736131,13.10267148,-99999.0,'11111222,11111222,99999999' 
TABS,ioos:station:wmo:42046:1,1999-09-04T00:30:00Z,27.8903,-94.0367,2.0,184.8301982,7.125307011,-99999.0,'11133222,11111222,99999999' 
TABS,ioos:station:wmo:42046:1,1999-09-04T01:00:00Z,27.8903,-94.0367,2.0,185.5991158,5.12445119,-99999.0,'11133222,11111222,99999999' 
TABS,ioos:station:wmo:42046:1,1999-09-04T01:30:00Z,27.8903,-94.0367,2.0,140.7793671,17.55477143,-99999.0,'11111222,11111222,99999999' 
TABS,ioos:station:wmo:42046:1,1999-09-04T02:00:00Z,27.8903,-94.0367,2.0,143.5911001,9.940321926,-99999.0,'11133222,11111222,99999999' 
TABS,ioos:station:wmo:42046:1,1999-09-04T02:30:00Z,27.8903,-94.0367,2.0,97.49584011,7.665507159,-99999.0,'11133222,11111222,99999999' 
TABS,ioos:station:wmo:42046:1,1999-09-04T03:00:00Z,27.8903,-94.0367,2.0,84.59622128,7.433034374,-99999.0,'11133222,11111222,99999999' 
TABS,ioos:station:wmo:42046:1,1999-09-04T03:30:00Z,27.8903,-94.0367,2.0,108.2628472,10.53043209,-99999.0,'11111222,11111222,99999999' 
TABS,ioos:station:wmo:42046:1,1999-09-04T04:00:00Z,27.8903,-94.0367,2.0,121.6074283,4.579301257,-99999.0,'11133222,11111222,99999999' 
TABS,ioos:station:wmo:42046:1,1999-09-04T04:30:00Z,27.8903,-94.0367,2.0,140.7742072,6.32534584,-99999.0,'11133222,11111222,99999999' 
TABS,ioos:station:wmo:42046:1,1999-09-04T05:00:00Z,27.8903,-94.0367,2.0,113.4985107,5.015974482,-99999.0,'11133222,11111222,99999999' 
TABS,ioos:station:wmo:42046:1,1999-09-04T05:30:00Z,27.8903,-94.0367,2.0,87.30572201,8.50940656,-99999.0,'11133222,11111222,99999999' 
TABS,ioos:station:wmo:42046:1,1999-09-04T06:00:00Z,27.8903,-94.0367,2.0,46.30205486,6.224146528,-99999.0,'11133222,11111222,99999999' 
TABS,ioos:station:wmo:42046:1,1999-09-04T06:30:00Z,27.8903,-94.0367,2.0,84.28942022,7.034912935,-99999.0,'11133222,11111222,99999999' 
TABS,ioos:station:wmo:42046:1,1999-09-04T07:00:00Z,27.8903,-94.0367,2.0,35.34023474,6.742403132,-99999.0,'11133222,11111222,99999999' 
TABS,ioos:station:wmo:42046:1,1999-09-04T07:30:00Z,27.8903,-94.0367,2.0,34.06103963,8.570297544,-99999.0,'11133222,11111222,99999999' 
TABS,ioos:station:wmo:42046:1,1999-09-04T08:00:00Z,27.8903,-94.0367,2.0,43.68822051,9.265527508,-99999.0,'11133222,11111222,99999999' 
TABS,ioos:station:wmo:42046:1,1999-09-04T08:30:00Z,27.8903,-94.0367,2.0,23.84697267,15.08807476,-99999.0,'11111222,11111222,99999999' 
TABS,ioos:station:wmo:42046:1,1999-09-04T09:00:00Z,27.8903,-94.0367,2.0,38.58551842,12.02538981,-99999.0,'11111222,11111222,99999999' 
TABS,ioos:station:wmo:42046:1,1999-09-04T09:30:00Z,27.8903,-94.0367,2.0,66.03756706,12.80351514,-99999.0,'11111222,11111222,99999999' 
TABS,ioos:station:wmo:42046:1,1999-09-04T10:00:00Z,27.8903,-94.0367,2.0,21.16142079,9.972462083,-99999.0,'11133222,11111222,99999999' 
TABS,ioos:station:wmo:42046:1,1999-09-04T10:30:00Z,27.8903,-94.0367,2.0,62.44725285,18.15957048,-99999.0,'11111222,11111222,99999999' 
TABS,ioos:station:wmo:42046:1,1999-09-04T11:00:00Z,27.8903,-94.0367,2.0,46.79001165,9.055385138,-99999.0,'11133222,11111222,99999999' 
TABS,ioos:station:wmo:42046:1,1999-09-04T11:30:00Z,27.8903,-94.0367,2.0,28.30090005,8.858893836,-99999.0,'11133222,11111222,99999999' 
TABS,ioos:station:wmo:42046:1,1999-09-04T12:00:00Z,27.8903,-94.0367,2.0,41.63365244,14.44991349,-99999.0,'11111222,11111222,99999999' 
TABS,ioos:station:wmo:42046:1,1999-09-04T12:30:00Z,27.8903,-94.0367,2.0,32.44676803,17.89329483,-99999.0,'11111222,11111222,99999999' 
TABS,ioos:station:wmo:42046:1,1999-09-04T13:00:00Z,27.8903,-94.0367,2.0,75.1735547,17.5855054,-99999.0,'11111222,11111222,99999999' 
TABS,ioos:station:wmo:42046:1,1999-09-04T13:30:00Z,27.8903,-94.0367,2.0,37.41828884,20.90095692,-99999.0,'11111222,11111222,99999999' 
TABS,ioos:station:wmo:42046:1,1999-09-04T14:00:00Z,27.8903,-94.0367,2.0,60.08959437,21.4580987,-99999.0,'11111222,11111222,99999999' 
TABS,ioos:station:wmo:42046:1,1999-09-04T14:30:00Z,27.8903,-94.0367,2.0,62.08712682,19.01183842,-99999.0,'11111222,11111222,99999999' 
TABS,ioos:station:wmo:42046:1,1999-09-04T15:00:00Z,27.8903,-94.0367,2.0,69.28317339,16.67842918,-99999.0,'11111222,11111222,99999999' 
TABS,ioos:station:wmo:42046:1,1999-09-04T15:30:00Z,27.8903,-94.0367,2.0,60.83245483,14.7732867,-99999.0,'11111222,11111222,99999999' 
TABS,ioos:station:wmo:42046:1,1999-09-04T16:00:00Z,27.8903,-94.0367,2.0,71.90955293,15.7800507,-99999.0,'11111222,11111222,99999999' 
TABS,ioos:station:wmo:42046:1,1999-09-04T16:30:00Z,27.8903,-94.0367,2.0,79.13921078,17.51370892,-99999.0,'11111222,11111222,99999999' 
TABS,ioos:station:wmo:42046:1,1999-09-04T17:00:00Z,27.8903,-94.0367,2.0,82.04249338,18.7808413,-99999.0,'11111222,11111222,99999999' 